Tracking 18957 objects as of 22-Jan-2018
HD Live streaming from Space Station
objects crossing your sky now

EKRAN 11

Track EKRAN 11 now!
EKRAN 11 is classified as:


NORAD ID: 14377
Int'l Code: 1983-100A
Perigee: 35,784.4 km
Apogee: 35,832.9 km
Inclination: 13.5 °
Period: 1,436.9 minutes
Semi major axis: 42179 km
RCS: 1.2589 m2 (large)
Launch date: September 29, 1983
Source: Commonwealth of Independent States (former USSR) (CIS)
Launch site: TYURATAM MISSILE AND SPACE COMPLEX (TTMTR)
aabbcc
Your satellite tracking list
Your tracking list is empty




NASA's NSSDC Master Catalog

Two Line Element Set (TLE):
1 14377U 83100A   18021.84493797 -.00000198 +00000-0 +00000-0 0  9996
2 14377 013.5435 333.5294 0005751 295.3456 243.4977 01.00218592016603
Source of the keplerian elements: AFSPC